Weather History for KBLV - February, 2012

Change the Weather History Date:

Friday, February 10, 2012

  Actual Average Record
Temperature  
Mean Temperature 32 °F -  
Max Temperature 41 °F 44 °F 77 °F (1976)
Min Temperature 22 °F 23 °F -21 °F (1982)
Degree Days  
Heating Degree Days 33    
Moisture  
Dew Point 30 °F    
Average Humidity 90    
Maximum Humidity 100    
Minimum Humidity 69    
Precipitation  
Precipitation 0.03 in - - ()
Sea Level Pressure  
Sea Level Pressure 30.10 in    
Wind  
Wind Speed 10 mph (West)    
Max Wind Speed 24 mph    
Max Gust Speed 31 mph    
Visibility 9 miles    
Events Rain , Snow    
Averages and records for this station are not official NWS values.
T = Trace of Precipitation, MM = Missing Value Source: NWS Daily Summary

Daily Weather History Graph

Daily Weather History Graph

Search for Another Location

Airport or City:

Trip Planner

Search our weather history database for the weather conditions in past years. The results will help you decide how hot, cold, wet, or windy it might be!

Date:

Astronomy

Feb. 10, 2012 Rise Set
Actual Time 6:56 AM CST 5:31 PM CST
Civil Twilight 6:28 AM CST 5:58 PM CST
Nautical Twilight 5:57 AM CST 6:29 PM CST
Astronomical Twilight 5:26 AM CST 7:00 PM CST
Moon 9:05 PM CST (2/10) 8:08 AM CST (2/10)
Length of Visible Light 11h 29m
Length of Day
10h 34m
Waning Gibbous, 90% of the Moon is Illuminated
Feb 10
Waning Gibbous
Feb 14
Last Quarter
Feb 21
New
Feb 29
First Quarter
Mar 8
Full

Hourly Weather History & Observations

Time (CST) Temp. Windchill Dew Point Humidity Pressure Visibility Wind Dir Wind Speed Gust Speed Precip Events Conditions
12:55 AM 33.8 °F 28.6 °F 31.5 °F 91% 30.17 in 10.0 mi South 5.8 mph - N/A   Overcast
1:55 AM 34.0 °F 29.8 °F 31.6 °F 91% 30.16 in 10.0 mi South 4.6 mph - N/A   Overcast
2:55 AM 34.3 °F 27.7 °F 30.9 °F 87% 30.14 in 10.0 mi South 8.1 mph - N/A   Overcast
3:55 AM 34.3 °F 29.2 °F 31.1 °F 88% 30.11 in 10.0 mi South 5.8 mph - N/A   Overcast
4:55 AM 34.7 °F 29.6 °F 31.5 °F 88% 30.10 in 10.0 mi South 5.8 mph - N/A   Overcast
5:55 AM 35.1 °F 27.9 °F 31.3 °F 86% 30.10 in 10.0 mi South 9.2 mph - N/A   Overcast
6:07 AM 35.6 °F 28.0 °F 32.0 °F 87% 30.09 in 10.0 mi South 10.4 mph - N/A Snow Light Snow
6:29 AM 35.6 °F 28.0 °F 32.0 °F 87% 30.09 in 10.0 mi South 10.4 mph - N/A   Scattered Clouds
6:55 AM 34.3 °F 26.5 °F 33.1 °F 95% 30.09 in 10.0 mi South 10.4 mph - 0.00 in   Partly Cloudy
7:41 AM 33.8 °F 27.7 °F 33.8 °F 100% 30.08 in 10.0 mi SSW 6.9 mph - N/A   Mostly Cloudy
7:55 AM 34.7 °F 27.5 °F 34.5 °F 99% 30.08 in 10.0 mi SSW 9.2 mph - 0.00 in   Mostly Cloudy
8:00 AM 35.6 °F 29.2 °F 33.8 °F 93% 30.08 in 10.0 mi SSW 8.1 mph - N/A   Overcast
8:01 AM 35.6 °F 29.2 °F 33.8 °F 93% 30.08 in 10.0 mi SSW 8.1 mph - N/A Rain Light Rain
8:02 AM 35.6 °F 29.2 °F 33.8 °F 93% 30.08 in 10.0 mi SSW 8.1 mph - N/A   Overcast
8:55 AM 34.9 °F 27.7 °F 34.7 °F 99% 30.07 in 10.0 mi SSW 9.2 mph - 0.00 in   Overcast
8:59 AM 35.6 °F 28.6 °F 35.6 °F 100% 30.07 in 10.0 mi SSW 9.2 mph - N/A   Overcast
9:28 AM 35.6 °F 28.6 °F 35.6 °F 100% 30.07 in 10.0 mi SSW 9.2 mph - N/A Rain Light Rain
9:55 AM 35.4 °F 28.4 °F 35.2 °F 99% 30.07 in 8.0 mi SW 9.2 mph - 0.00 in Rain Light Rain
10:16 AM 35.6 °F 29.9 °F 35.6 °F 100% 30.07 in 8.0 mi WSW 6.9 mph - N/A Rain Light Rain
10:31 AM 35.6 °F 29.9 °F 35.6 °F 100% 30.08 in 6.0 mi WSW 6.9 mph - N/A Rain Light Rain
10:39 AM 35.6 °F 30.7 °F 35.6 °F 100% 30.07 in 5.0 mi WSW 5.8 mph - N/A Rain Light Rain
10:55 AM 35.2 °F 29.5 °F 35.1 °F 99% 30.07 in 6.0 mi WSW 6.9 mph - 0.01 in Rain Light Rain
11:12 AM 35.6 °F 28.6 °F 35.6 °F 100% 30.06 in 9.0 mi SW 9.2 mph - N/A Rain Light Rain
11:18 AM 37.4 °F 31.4 °F 35.6 °F 93% 30.05 in 10.0 mi SW 8.1 mph - N/A Rain Light Rain
11:23 AM 37.4 °F 32.1 °F 35.6 °F 93% 30.05 in 10.0 mi SSW 6.9 mph - N/A   Overcast
11:55 AM 37.4 °F 30.8 °F 37.2 °F 99% 30.03 in 10.0 mi SW 9.2 mph - 0.00 in   Overcast
12:37 PM 39.2 °F 33.6 °F 39.2 °F 100% 30.01 in 10.0 mi WSW 8.1 mph - N/A   Overcast
12:55 PM 39.2 °F 33.0 °F 39.0 °F 99% 30.01 in 10.0 mi WSW 9.2 mph - N/A   Overcast
1:26 PM 39.2 °F 33.0 °F 39.2 °F 100% 30.00 in 10.0 mi WSW 9.2 mph - N/A   Overcast
1:55 PM 39.7 °F 35.6 °F 39.0 °F 97% 29.99 in 10.0 mi WSW 5.8 mph - N/A   Overcast
2:39 PM 39.2 °F 33.0 °F 39.2 °F 100% 29.99 in 10.0 mi West 9.2 mph - N/A Rain Light Rain
2:55 PM 39.7 °F 33.7 °F 39.0 °F 97% 29.99 in 10.0 mi West 9.2 mph - 0.01 in Rain Light Rain
2:57 PM 39.2 °F 33.6 °F 39.2 °F 100% 29.99 in 10.0 mi West 8.1 mph - N/A   Mostly Cloudy
3:21 PM 41.0 °F 32.2 °F 39.2 °F 93% 29.99 in 8.0 mi NW 18.4 mph - N/A   Light Drizzle
3:33 PM 35.6 °F 24.8 °F 35.6 °F 100% 30.02 in 1.0 mi NW 19.6 mph 28.8 mph N/A Rain , Snow Light Rain
3:46 PM 35.6 °F 26.2 °F 35.6 °F 100% 30.02 in 4.0 mi NNW 15.0 mph 26.5 mph N/A Snow Light Snow
3:55 PM 34.0 °F 24.6 °F 33.8 °F 99% 30.03 in 5.0 mi NNW 13.8 mph 21.9 mph 0.01 in Snow Light Snow
3:58 PM 33.8 °F 21.3 °F 33.8 °F 100% 30.04 in 7.0 mi NW 24.2 mph 31.1 mph N/A   Overcast
4:04 PM 33.8 °F 21.9 °F 32.0 °F 93% 30.04 in 9.0 mi NW 21.9 mph 31.1 mph N/A Rain Light Rain
4:31 PM 32.0 °F 21.2 °F 30.2 °F 93% 30.06 in 10.0 mi NNW 16.1 mph 27.6 mph N/A Rain Light Rain
4:44 PM 32.0 °F 20.8 °F 28.4 °F 87% 30.06 in 9.0 mi NNW 17.3 mph 25.3 mph N/A Snow Light Snow
4:55 PM 31.3 °F 18.9 °F 27.5 °F 86% 30.06 in 5.0 mi NNW 20.7 mph 25.3 mph 0.00 in Snow Light Snow
4:56 PM 30.2 °F 18.9 °F 28.4 °F 93% 30.07 in 5.0 mi NW 16.1 mph 25.3 mph N/A Snow Light Snow
5:55 PM 29.5 °F 16.2 °F 23.5 °F 79% 30.10 in 10.0 mi NW 21.9 mph 29.9 mph 0.00 in   Overcast
6:00 PM 28.4 °F 15.4 °F 23.0 °F 80% 30.11 in 10.0 mi NW 19.6 mph 26.5 mph N/A   Overcast
6:55 PM 28.2 °F 17.2 °F 21.0 °F 74% 30.15 in 10.0 mi NW 13.8 mph 26.5 mph N/A   Overcast
7:55 PM 27.0 °F 14.3 °F 19.0 °F 72% 30.19 in 10.0 mi NNW 17.3 mph 25.3 mph N/A   Overcast
8:20 PM 26.6 °F 15.2 °F 19.4 °F 74% 30.21 in 10.0 mi NW 13.8 mph - N/A   Overcast
8:55 PM 26.1 °F 12.3 °F 17.1 °F 69% 30.22 in 10.0 mi NNW 19.6 mph 26.5 mph N/A   Overcast
9:13 PM 24.8 °F 11.5 °F 17.6 °F 74% 30.23 in 10.0 mi NW 17.3 mph 21.9 mph N/A   Mostly Cloudy
9:26 PM 23.0 °F 7.6 °F 15.8 °F 74% 30.24 in 10.0 mi NW 21.9 mph 28.8 mph N/A   Scattered Clouds
9:55 PM 23.4 °F 9.6 °F 16.3 °F 75% 30.25 in 10.0 mi NW 17.3 mph - N/A   Partly Cloudy
10:22 PM 23.0 °F 9.2 °F 15.8 °F 74% 30.26 in 10.0 mi NW 17.3 mph 26.5 mph N/A   Mostly Cloudy
10:55 PM 23.7 °F 8.5 °F 15.8 °F 72% 30.27 in 10.0 mi NW 21.9 mph 26.5 mph 0.00 in   Overcast
11:23 PM 23.0 °F 9.6 °F 15.8 °F 74% 30.28 in 10.0 mi NW 16.1 mph 24.2 mph N/A   Overcast
11:30 PM 23.0 °F 8.7 °F 15.8 °F 74% 30.28 in 10.0 mi NW 18.4 mph 24.2 mph N/A   Overcast
11:55 PM 22.6 °F 7.5 °F 16.2 °F 76% 30.29 in 10.0 mi NW 20.7 mph 25.3 mph 0.00 in   Overcast